TimeCDT,TemperatureF,Dew PointF,Humidity,Sea Level PressureIn,VisibilityMPH,Wind Direction,Wind SpeedMPH,Gust SpeedMPH,PrecipitationIn,Events,Conditions,WindDirDegrees,DateUTC
12:53 AM,81.0,60.1,49,29.91,10.0,ESE,9.2,-,N/A,,Clear,120,2013-09-15 05:53:00
1:53 AM,80.1,60.1,50,29.91,10.0,ESE,10.4,-,N/A,,Clear,120,2013-09-15 06:53:00
2:53 AM,79.0,61.0,54,29.91,10.0,ESE,9.2,-,N/A,,Clear,120,2013-09-15 07:53:00
3:53 AM,79.0,61.0,54,29.91,10.0,SE,10.4,-,N/A,,Clear,130,2013-09-15 08:53:00
4:53 AM,78.1,62.1,58,29.91,10.0,SE,8.1,-,N/A,,Clear,130,2013-09-15 09:53:00
5:53 AM,77.0,63.0,62,29.93,10.0,SE,6.9,-,N/A,,Clear,140,2013-09-15 10:53:00
6:53 AM,75.9,64.0,67,29.95,10.0,SE,6.9,-,N/A,,Clear,140,2013-09-15 11:53:00
7:53 AM,75.9,64.9,69,29.97,10.0,ESE,6.9,-,N/A,,Clear,120,2013-09-15 12:53:00
8:53 AM,79.0,64.9,62,29.99,10.0,SE,6.9,-,N/A,,Clear,140,2013-09-15 13:53:00
9:53 AM,82.0,66.9,60,30.00,10.0,SSE,6.9,-,N/A,,Clear,150,2013-09-15 14:53:00
10:53 AM,84.9,68.0,57,30.00,10.0,South,11.5,-,N/A,,Clear,170,2013-09-15 15:53:00
11:53 AM,89.1,68.0,50,30.00,10.0,SSW,8.1,-,N/A,,Clear,200,2013-09-15 16:53:00
12:53 PM,90.0,68.0,48,29.99,10.0,Variable,3.5,-,N/A,,Clear,0,2013-09-15 17:53:00
1:53 PM,91.9,66.9,44,29.97,10.0,SSE,5.8,-,N/A,,Clear,150,2013-09-15 18:53:00
2:53 PM,95.0,66.9,40,29.95,10.0,SE,8.1,-,N/A,,Partly Cloudy,140,2013-09-15 19:53:00
3:53 PM,93.9,66.0,40,29.93,10.0,SE,8.1,18.4,N/A,,Clear,130,2013-09-15 20:53:00
4:53 PM,93.0,64.9,39,29.93,10.0,SE,11.5,-,N/A,,Partly Cloudy,140,2013-09-15 21:53:00
5:53 PM,91.9,64.9,41,29.93,10.0,SE,9.2,-,N/A,,Partly Cloudy,130,2013-09-15 22:53:00
6:53 PM,91.0,64.0,41,29.92,10.0,ESE,10.4,-,N/A,,Clear,110,2013-09-15 23:53:00
7:53 PM,89.1,64.0,43,29.94,10.0,ESE,8.1,-,N/A,,Partly Cloudy,120,2013-09-16 00:53:00
8:53 PM,88.0,63.0,43,29.96,10.0,SE,10.4,-,N/A,,Partly Cloudy,130,2013-09-16 01:53:00
9:53 PM,86.0,64.0,48,29.97,10.0,SE,5.8,-,N/A,,Clear,140,2013-09-16 02:53:00
10:53 PM,86.0,64.0,48,29.98,10.0,SE,9.2,-,N/A,,Clear,140,2013-09-16 03:53:00
11:53 PM,84.9,64.0,49,29.99,10.0,SE,6.9,-,N/A,,Clear,130,2013-09-16 04:53:00